Location: Peebles
(55.6412°N, 3.1714°W)
Time: 11:52:08
(UTC+00:00)

NOAA 16 DEB - Visible Passes

Search period start: 05 March 2024 00:00
Search period end: 15 March 2024 00:00
Orbit: 820 x 852 km, 98.7° (Epoch: 04 March)

Date Brightness Start Highest point End Pass type
(mag) Time Alt. Az. Time Alt. Az. Time Alt. Az.
05 Mar ? 19:49:27 15° SSE 19:53:57 69° ENE 19:59:27 10° NNW visible
05 Mar ? 21:31:08 13° SW 21:34:52 26° W 21:39:29 10° NW visible
06 Mar ? 19:33:04 12° SE 19:37:58 55° ENE 19:43:22 10° N visible
06 Mar ? 21:14:45 15° SSW 21:18:40 33° W 21:23:39 10° NNW visible
07 Mar ? 19:16:51 10° SE 19:22:01 44° ENE 19:27:13 10° N visible
07 Mar ? 20:58:23 16° SSW 21:02:28 43° W 21:07:44 10° NNW visible
08 Mar ? 19:01:09 10° ESE 19:06:05 35° ENE 19:11:03 10° N visible
08 Mar ? 20:42:00 16° S 20:46:20 55° W 20:51:47 10° NNW visible
08 Mar ? 22:26:25 10° W 22:28:02 11° W 22:29:40 10° WNW visible
09 Mar ? 18:45:32 10° ESE 18:50:10 29° NE 18:54:51 10° N visible
09 Mar ? 20:25:36 15° S 20:30:12 70° WSW 20:35:45 10° NNW visible
09 Mar ? 22:08:37 10° WSW 22:11:40 15° W 22:14:45 10° NW visible
10 Mar ? 20:09:13 13° SSE 20:14:07 88° WSW 20:19:42 10° NNW visible
10 Mar ? 21:51:27 10° SW 21:55:20 19° W 21:59:14 10° NW visible
11 Mar ? 19:52:49 11° SSE 19:58:03 74° ENE 20:03:35 10° NNW visible
11 Mar ? 21:34:35 10° SW 21:39:02 25° W 21:43:32 10° NW visible
12 Mar ? 19:36:38 10° SE 19:42:01 58° ENE 19:47:27 10° NNW visible
12 Mar ? 21:18:04 11° SSW 21:22:46 31° W 21:27:40 10° NNW visible
13 Mar ? 19:20:47 10° SE 19:26:00 46° ENE 19:31:17 10° N visible
13 Mar ? 21:01:40 11° SSW 21:06:32 40° W 21:11:44 10° NNW visible
14 Mar ? 19:05:01 10° SE 19:10:01 37° ENE 19:15:04 10° N visible
14 Mar ? 20:45:15 11° S 20:50:19 51° W 20:55:44 10° NNW visible
14 Mar ? 22:31:09 10° W 22:32:05 10° WNW 22:33:01 10° WNW visible
